N0MR Weather Reports


time (UTC)temp
C
wind
direction
speed
KPH
gust
KPH
rain 1hr
cm
rain 24hr
cm
rain mn
cm
humidity
%
barometer
mb
20260904083336 13 219 0.0 1.6 1.24 2.34 1.70 96 1011.0
20260904082335 14 219 1.6 8.0 1.27 2.34 1.70 96 1011.2
20260904081337 14 219 1.6 8.0 1.27 2.34 1.70 96 1011.2
20260904080337 14 230 0.0 6.4 1.30 2.34 1.35 96 1011.3
20260904074338 14 313 0.0 12.9 0.10 1.09 0.46 97 1011.7
20260904073337 14 313 0.0 12.9 0.10 1.09 0.46 97 1011.7
20260904071336 13 242 1.6 9.7 0.08 1.07 0.43 96 1012.0
20260904070334 13 214 0.0 8.0 0.05 1.04 0.05 96 1011.3
20260904065333 13 214 0.0 8.0 0.05 1.04 0.05 96 1011.3
20260904064333 13 169 0.0 4.8 0.03 1.02 0.08 96 1012.0
20260904063337 14 70 0.0 3.2 0.00 0.99 0.36 96 1011.9
20260904062333 14 70 0.0 3.2 0.00 0.99 0.36 96 1011.9
20260904061334 14 315 0.0 3.2 0.00 0.99 0.00 96 1012.3
20260904060435 14 315 0.0 3.2 0.00 0.99 0.00 96 1012.3
20260904055439 14 74 0.0 3.2 0.05 0.99 0.05 96 1012.0
20260904054436 14 74 0.0 3.2 0.05 0.99 0.05 96 1012.0
20260904053435 14 24 0.0 1.6 0.36 0.99 0.36 96 1012.4
20260904052436 14 24 0.0 1.6 0.36 0.99 0.36 96 1012.4
20260904051435 14 245 0.0 8.0 0.36 0.99 0.99 95 1012.0
20260904050439 14 245 0.0 8.0 0.36 0.99 0.99 95 1012.0
20260904045435 14 294 0.0 6.4 0.30 0.94 0.94 96 1011.5
20260904044437 14 294 0.0 6.4 0.30 0.94 0.94 96 1011.5
20260904043438 14 345 0.0 4.8 0.00 0.64 0.64 95 1012.0
20260904042435 14 345 0.0 4.8 0.00 0.64 0.64 95 1012.0
20260904041435 15 223 0.0 4.8 0.13 0.64 0.64 95 1012.3
20260904040438 15 223 0.0 4.8 0.13 0.64 0.64 95 1012.3
20260904035438 15 186 0.0 8.0 0.18 0.64 0.64 95 1012.8
20260904034437 15 186 0.0 8.0 0.18 0.64 0.64 95 1012.8
20260904033434 15 248 0.0 3.2 0.36 0.64 0.64 95 1012.7
20260904032437 15 248 0.0 3.2 0.36 0.64 0.64 95 1012.7
20260904031435 15 332 0.0 1.6 0.51 0.51 0.51 94 1013.0
20260904030434 15 331 0.0 4.8 0.46 0.46 0.46 93 1013.4
20260904025438 15 331 0.0 4.8 0.46 0.46 0.46 93 1013.4
20260904024437 15 218 0.0 12.9 0.28 0.28 0.28 91 1014.3
20260904023437 15 218 0.0 12.9 0.28 0.28 0.28 91 1014.3
20260904022438 16 167 1.6 8.0 0.00 0.00 0.00 84 1014.7
20260904021437 16 167 1.6 8.0 0.00 0.00 0.00 84 1014.7
20260904020437 16 313 4.8 12.9 0.00 0.00 0.00 81 1012.1
20260903213633 22 85 0.0 9.7 0.00 0.00 0.00 61 1011.2
20260903212632 22 85 0.0 9.7 0.00 0.00 0.00 61 1011.2
20260903211631 23 184 0.0 9.7 0.00 0.00 0.00 60 1011.1
20260903210633 23 184 0.0 9.7 0.00 0.00 0.00 60 1011.1
20260903205633 23 82 0.0 9.7 0.00 0.00 0.00 61 1011.1
20260903204636 23 82 0.0 9.7 0.00 0.00 0.00 61 1011.1
20260903203635 22 232 4.8 9.7 0.00 0.00 0.00 61 1011.5
20260903202633 22 232 4.8 9.7 0.00 0.00 0.00 61 1011.5
20260903201633 23 339 0.0 9.7 0.00 0.00 0.00 58 1011.8
20260903200636 23 40 0.0 11.3 0.00 0.00 0.00 62 1011.5
20260903195632 23 40 0.0 11.3 0.00 0.00 0.00 62 1011.5
20260903194633 23 124 0.0 4.8 0.00 0.00 0.00 59 1011.6
20260903193636 23 124 0.0 4.8 0.00 0.00 0.00 59 1011.6
20260903192633 23 182 0.0 6.4 0.00 0.00 0.00 60 1011.8
20260903191632 23 182 0.0 6.4 0.00 0.00 0.00 60 1011.8
20260903190643 23 210 0.0 14.5 0.00 0.00 0.00 61 1011.9
20260903185633 23 210 0.0 14.5 0.00 0.00 0.00 61 1011.9
20260903184633 23 113 0.0 8.0 0.00 0.00 0.00 62 1012.3
20260903183632 23 113 0.0 8.0 0.00 0.00 0.00 62 1012.3
20260903182633 23 196 0.0 9.7 0.00 0.00 0.00 60 1012.1
20260903181635 23 196 0.0 9.7 0.00 0.00 0.00 60 1012.1
20260903180633 23 174 0.0 8.0 0.00 0.00 0.00 60 1012.3
20260903175633 23 174 0.0 8.0 0.00 0.00 0.00 60 1012.3
20260903174639 23 217 0.0 8.0 0.00 0.15 0.00 62 1012.3
20260903173634 23 217 0.0 8.0 0.00 0.15 0.00 62 1012.3
20260903172633 23 94 0.0 9.7 0.00 0.15 0.00 62 1012.4
20260903171634 23 94 0.0 9.7 0.00 0.15 0.00 62 1012.4
20260903170637 23 40 0.0 8.0 0.00 0.15 0.00 63 1012.4
20260903165640 22 34 0.0 9.7 0.00 0.15 0.00 65 1012.4
20260903164636 22 34 0.0 9.7 0.00 0.15 0.00 65 1012.4
20260903163636 22 76 0.0 8.0 0.00 0.15 0.00 65 1012.7
20260903162634 22 76 0.0 8.0 0.00 0.15 0.00 65 1012.7
20260903161634 22 102 0.0 4.8 0.00 0.15 0.00 67 1012.9
20260903160637 22 102 0.0 4.8 0.00 0.15 0.00 67 1012.9
20260903155635 21 271 0.0 6.4 0.00 0.15 0.00 71 1013.1
20260903154636 21 271 0.0 6.4 0.00 0.15 0.00 71 1013.1
20260903153635 20 156 0.0 6.4 0.00 0.15 0.00 75 1013.1
20260903152636 20 156 0.0 6.4 0.00 0.15 0.00 75 1013.1
20260903145635 17 284 0.0 6.4 0.00 0.15 0.00 86 1013.4
20260903144636 17 284 0.0 6.4 0.00 0.15 0.00 86 1013.4
20260903143633 16 250 0.0 8.0 0.00 0.15 0.00 90 1013.5
20260903142635 16 250 0.0 8.0 0.00 0.15 0.00 90 1013.5
20260903141634 16 302 0.0 6.4 0.00 0.15 0.00 97 1013.5
20260903140634 16 302 0.0 6.4 0.00 0.15 0.00 97 1013.5
20260903135638 15 234 0.0 1.6 0.00 0.15 0.00 97 1013.6
20260903120639 11 193 0.0 0.0 0.00 0.15 0.00 96 1013.0
20260903115635 11 193 0.0 0.0 0.00 0.15 0.00 96 1013.0